Voltar ao catálogo

PRSS 1

AtivoCiênciaSSO
NORAD 43530·PAYLOAD·🇵🇰 Pakistan

Lançado Jul 9, 2018 de Jiuquan Satellite Launch Center

Loading…

Próximas Passagens (próximas 24 horas)

TLE

AtualizadoSource: Space-Track

Época: Sep 14, 2026, 15:32 UTC

1 43530U 18056B   26257.64790624  .00000174  00000-0  28287-4 0  9998
2 43530  97.7740 323.0070 0001802  82.3605 277.7813 14.82099108441681

Acompanhe PRSS 1 em tempo real com AllMySat

Download on the App Store